VU3ZAG-13 Weather Reports


time (UTC)temp
F
wind
direction
speed
knots
gust
knots
rain 1hr
in
rain 24hr
in
rain mn
in
humidity
%
barometer
mb
20260507192046 90 2 0.9 0.0 0.00 0.00 0.00 46
20260507191537 90 305 0.9 0.0 0.00 0.00 0.00 47
20260507190520 90 270 0.9 0.0 0.00 0.00 0.00 46
20260507190011 90 213 0.9 0.0 0.00 0.00 0.00 46
20260507185502 90 242 0.9 0.0 0.00 0.00 0.00 46
20260507184953 90 239 0.9 0.0 0.00 0.00 0.00 46
20260507184443 90 245 1.7 0.0 0.00 0.00 0.00 47
20260507183935 90 198 0.9 0.0 0.00 0.00 0.00 47
20260507183426 90 267 1.7 0.0 0.00 0.00 0.00 47
20260507182914 90 264 1.7 0.0 0.00 0.00 0.00 47
20260507182405 90 269 1.7 0.0 0.00 0.00 0.00 46
20260507181856 90 279 0.9 0.0 0.00 0.00 0.00 45
20260507181347 90 294 0.9 0.0 0.00 0.00 0.00 46
20260507180839 90 287 2.6 0.0 0.00 0.00 0.00 45
20260507180330 90 277 1.7 0.0 0.00 0.00 0.00 45
20260507175821 90 184 1.7 0.0 0.00 0.00 0.00 42
20260507175313 90 186 0.9 0.0 0.00 0.00 0.00 41
20260507174804 90 268 1.7 0.0 0.00 0.00 0.00 42
20260507174255 90 263 1.7 0.0 0.00 0.00 0.00 41
20260507173746 90 247 1.7 0.0 0.00 0.00 0.00 40
20260507173237 90 271 1.7 0.0 0.00 0.00 0.00 40
20260507172728 89 249 1.7 0.0 0.00 0.00 0.00 41
20260507172219 90 278 1.7 0.0 0.00 0.00 0.00 42
20260507171710 90 175 0.9 0.0 0.00 0.00 0.00 40
20260507171202 90 208 0.9 0.0 0.00 0.00 0.00 40
20260507170653 90 321 1.7 0.0 0.00 0.00 0.00 41
20260507170145 91 15 0.9 0.0 0.00 0.00 0.00 40
20260507165636 91 289 3.5 0.0 0.00 0.00 0.00 38
20260507165127 91 280 4.3 0.0 0.00 0.00 0.00 38
20260507164618 91 278 3.5 0.0 0.00 0.00 0.00 38
20260507164109 91 249 1.7 0.0 0.00 0.00 0.00 38
20260507163601 91 242 2.6 0.0 0.00 0.00 0.00 38
20260507163052 91 234 2.6 0.0 0.00 0.00 0.00 37
20260507162544 91 232 3.5 0.0 0.00 0.00 0.00 35
20260507162035 91 232 2.6 0.0 0.00 0.00 0.00 36
20260507161527 91 234 2.6 0.0 0.00 0.00 0.00 36
20260507161018 91 229 1.7 0.0 0.00 0.00 0.00 36
20260507160510 91 232 0.9 0.0 0.00 0.00 0.00 36
20260507160001 91 228 1.7 0.0 0.00 0.00 0.00 37
20260507155452 91 211 1.7 0.0 0.00 0.00 0.00 37
20260507154944 91 246 0.9 0.0 0.00 0.00 0.00 38
20260507154435 91 242 1.7 0.0 0.00 0.00 0.00 38
20260507153926 91 243 1.7 0.0 0.00 0.00 0.00 37
20260507153914 91 241 1.7 0.0 0.00 0.00 0.00 35
20260507153837 91 241 1.7 0.0 0.00 0.00 0.00 35
20260507153506 91 213 1.7 0.0 0.00 0.00 0.00 36
20260507153426 91 241 1.7 0.0 0.00 0.00 0.00 35
20260507153416 91 233 0.9 0.0 0.00 0.00 0.00 36
20260507153316 91 213 1.7 0.0 0.00 0.00 0.00 36
20260507153230 91 213 1.7 0.0 0.00 0.00 0.00 36
20260507153201 91 241 1.7 0.0 0.00 0.00 0.00 35
20260507152907 91 213 1.7 0.0 0.00 0.00 0.00 36
20260507152757 91 241 1.7 0.0 0.00 0.00 0.00 35
20260507152358 91 210 1.7 0.0 0.00 0.00 0.00 35
20260507152300 91 241 1.7 0.0 0.00 0.00 0.00 35
20260507151850 91 241 1.7 0.0 0.00 0.00 0.00 35
20260507151342 91 233 2.6 0.0 0.00 0.00 0.00 34
20260507151244 91 238 1.7 0.0 0.00 0.00 0.00 34
20260507150833 91 238 1.7 0.0 0.00 0.00 0.00 34
20260507150729 91 230 0.9 0.0 0.00 0.00 0.00 33
20260507150325 91 230 0.9 0.0 0.00 0.00 0.00 33
20260507145816 91 210 1.7 0.0 0.00 0.00 0.00 32
20260507145712 91 201 2.6 0.0 0.00 0.00 0.00 32
20260507145308 91 201 2.6 0.0 0.00 0.00 0.00 32
20260507144759 91 203 1.7 0.0 0.00 0.00 0.00 32
20260507144701 91 198 1.7 0.0 0.00 0.00 0.00 32
20260507144250 91 198 1.7 0.0 0.00 0.00 0.00 32
20260507143741 91 209 0.9 0.0 0.00 0.00 0.00 31
20260507143232 91 193 0.9 0.0 0.00 0.00 0.00 30
20260507142724 91 195 0.0 0.0 0.00 0.00 0.00 31
20260507142215 91 194 0.9 0.0 0.00 0.00 0.00 31
20260507141706 91 180 0.9 0.0 0.00 0.00 0.00 31
20260507141157 91 191 1.7 0.0 0.00 0.00 0.00 30
20260507140649 91 202 1.7 0.0 0.00 0.00 0.00 30
20260507140140 91 220 2.6 0.0 0.00 0.00 0.00 30
20260507135632 91 240 1.7 0.0 0.00 0.00 0.00 30
20260507135123 91 242 2.6 0.0 0.00 0.00 0.00 30
20260507134614 91 270 1.7 0.0 0.00 0.00 0.00 30
20260507134454 91 270 1.7 0.0 0.00 0.00 0.00 30
20260507134042 91 270 1.7 0.0 0.00 0.00 0.00 30
20260507133533 91 324 1.7 0.0 0.00 0.00 0.00 30
20260507133024 91 286 1.7 0.0 0.00 0.00 0.00 30
20260507132927 91 287 0.9 0.0 0.00 0.00 0.00 30
20260507132516 91 287 0.9 0.0 0.00 0.00 0.00 30
20260507132007 91 295 4.3 0.0 0.00 0.00 0.00 32
20260507131459 91 331 3.5 0.0 0.00 0.00 0.00 32
20260507111849 91 7 1.7 0.0 0.00 0.00 0.00 33
20260507104349 92 336 3.5 0.0 0.00 0.00 0.00 32
20260507103840 92 313 5.2 0.0 0.00 0.00 0.00 32
20260507103742 92 307 3.5 0.0 0.00 0.00 0.00 32
20260507103332 92 307 3.5 0.0 0.00 0.00 0.00 32
20260507103232 92 347 3.5 0.0 0.00 0.00 0.00 32
20260507102823 92 347 3.5 0.0 0.00 0.00 0.00 32
20260507102716 92 10 4.3 0.0 0.00 0.00 0.00 31
20260507102314 92 10 4.3 0.0 0.00 0.00 0.00 31
20260507102216 92 330 3.5 0.0 0.00 0.00 0.00 31
20260507101806 92 330 3.5 0.0 0.00 0.00 0.00 31
20260507101705 92 335 2.6 0.0 0.00 0.00 0.00 32
20260507101257 92 335 2.6 0.0 0.00 0.00 0.00 32
20260507100748 92 316 4.3 0.0 0.00 0.00 0.00 31
20260507100240 92 342 4.3 0.0 0.00 0.00 0.00 31
20260507095730 92 336 4.3 0.0 0.00 0.00 0.00 31
20260507095628 92 318 3.5 0.0 0.00 0.00 0.00 30
20260507095222 92 318 3.5 0.0 0.00 0.00 0.00 30
20260507094713 91 212 1.7 0.0 0.00 0.00 0.00 30
20260507094205 91 196 0.9 0.0 0.00 0.00 0.00 29
20260507094107 91 203 0.9 0.0 0.00 0.00 0.00 30
20260507093656 91 203 0.9 0.0 0.00 0.00 0.00 30
20260507093148 91 195 1.7 0.0 0.00 0.00 0.00 30
20260507093050 91 96 0.9 0.0 0.00 0.00 0.00 31
20260507092639 91 96 0.9 0.0 0.00 0.00 0.00 31
20260507092130 91 153 0.0 0.0 0.00 0.00 0.00 32
20260507091622 91 172 2.6 0.0 0.00 0.00 0.00 30
20260507091524 91 202 0.9 0.0 0.00 0.00 0.00 29
20260507091113 91 202 0.9 0.0 0.00 0.00 0.00 29
20260507091014 92 67 0.9 0.0 0.00 0.00 0.00 29
20260507090603 92 67 0.9 0.0 0.00 0.00 0.00 29
20260507090054 91 297 0.0 0.0 0.00 0.00 0.00 28
20260507085546 91 17 0.9 0.0 0.00 0.00 0.00 26
20260507085037 91 26 0.9 0.0 0.00 0.00 0.00 29
20260507084528 91 49 0.9 0.0 0.00 0.00 0.00 26
20260507084020 91 326 0.9 0.0 0.00 0.00 0.00 26
20260507083512 91 156 0.9 0.0 0.00 0.00 0.00 27
20260507083401 91 40 1.7 0.0 0.00 0.00 0.00 29
20260507083004 91 40 1.7 0.0 0.00 0.00 0.00 29
20260507082455 91 216 1.7 0.0 0.00 0.00 0.00 28
20260507081946 91 184 1.7 0.0 0.00 0.00 0.00 27
20260507081437 91 199 2.6 0.0 0.00 0.00 0.00 27
20260507081334 91 212 0.0 0.0 0.00 0.00 0.00 28
20260507080927 91 212 0.0 0.0 0.00 0.00 0.00 28
20260507080418 91 228 1.7 0.0 0.00 0.00 0.00 30
20260507075910 91 190 0.0 0.0 0.00 0.00 0.00 30
20260507075812 91 163 0.9 0.0 0.00 0.00 0.00 30
20260507075401 91 163 0.9 0.0 0.00 0.00 0.00 30
20260507075306 91 171 1.7 0.0 0.00 0.00 0.00 29
20260507074853 91 171 1.7 0.0 0.00 0.00 0.00 29
20260507074756 90 194 0.9 0.0 0.00 0.00 0.00 30
20260507074345 90 194 0.9 0.0 0.00 0.00 0.00 30
20260507072740 90 210 0.9 0.0 0.00 0.00 0.00 29
20260507072232 90 192 1.7 0.0 0.00 0.00 0.00 30
20260507071723 90 199 0.0 0.0 0.00 0.00 0.00 30
20260507071214 90 185 0.9 0.0 0.00 0.00 0.00 30
20260507070705 90 196 0.9 0.0 0.00 0.00 0.00 32
20260507070607 90 89 0.9 0.0 0.00 0.00 0.00 34
20260507070156 90 89 0.9 0.0 0.00 0.00 0.00 34
20260507065647 90 158 2.6 0.0 0.00 0.00 0.00 34
20260507065138 90 191 1.7 0.0 0.00 0.00 0.00 33
20260507065041 90 229 0.9 0.0 0.00 0.00 0.00 35
20260507064629 90 229 0.9 0.0 0.00 0.00 0.00 35
20260507064121 90 199 1.7 0.0 0.00 0.00 0.00 35
20260507063611 90 120 0.9 0.0 0.00 0.00 0.00 34
20260507063509 90 348 0.9 0.0 0.00 0.00 0.00 34
20260507063103 90 348 0.9 0.0 0.00 0.00 0.00 34
20260507062959 90 181 3.5 0.0 0.00 0.00 0.00 32
20260507062554 90 181 3.5 0.0 0.00 0.00 0.00 32
20260507062453 90 149 0.0 0.0 0.00 0.00 0.00 32
20260507062046 90 149 0.0 0.0 0.00 0.00 0.00 32
20260507061948 90 150 0.9 0.0 0.00 0.00 0.00 36
20260507061537 90 150 0.9 0.0 0.00 0.00 0.00 36
20260507061029 90 77 0.0 0.0 0.00 0.00 0.00 36
20260507060520 90 177 0.9 0.0 0.00 0.00 0.00 36
20260507060012 90 150 1.7 0.0 0.00 0.00 0.00 35
20260507055856 90 49 0.9 0.0 0.00 0.00 0.00 34
20260507055503 90 49 0.9 0.0 0.00 0.00 0.00 34
20260507055405 89 65 0.9 0.0 0.00 0.00 0.00 35
20260507054955 89 65 0.9 0.0 0.00 0.00 0.00 35
20260507054446 90 154 0.9 0.0 0.00 0.00 0.00 36
20260507054349 89 140 0.9 0.0 0.00 0.00 0.00 35
20260507053938 89 140 0.9 0.0 0.00 0.00 0.00 35
20260507053429 89 201 0.0 0.0 0.00 0.00 0.00 36
20260507052920 89 111 0.9 0.0 0.00 0.00 0.00 36
20260507052411 89 234 0.9 0.0 0.00 0.00 0.00 35
20260507031340 89 309 0.0 0.0 0.00 0.00 0.00 51
20260507030831 89 298 0.0 0.0 0.00 0.00 0.00 51
20260507030323 89 182 0.0 0.0 0.00 0.00 0.00 50
20260507025814 89 206 0.9 0.0 0.00 0.00 0.00 51
20260507025306 89 168 0.9 0.0 0.00 0.00 0.00 51
20260507024757 89 208 0.9 0.0 0.00 0.00 0.00 52
20260507024249 89 180 0.0 0.0 0.00 0.00 0.00 51
20260507023741 89 249 0.9 0.0 0.00 0.00 0.00 51
20260507023232 89 287 0.9 0.0 0.00 0.00 0.00 51
20260507023131 89 339 1.7 0.0 0.00 0.00 0.00 52
20260507022724 89 339 1.7 0.0 0.00 0.00 0.00 52
20260507022216 89 356 1.7 0.0 0.00 0.00 0.00 52
20260507021707 89 324 0.9 0.0 0.00 0.00 0.00 51
20260507021604 89 344 1.7 0.0 0.00 0.00 0.00 51
20260507021159 89 344 1.7 0.0 0.00 0.00 0.00 51
20260507020651 89 331 1.7 0.0 0.00 0.00 0.00 52
20260507020548 89 359 0.9 0.0 0.00 0.00 0.00 52
20260507020142 89 359 0.9 0.0 0.00 0.00 0.00 52
20260507015634 89 6 0.9 0.0 0.00 0.00 0.00 52
20260507015126 89 345 0.9 0.0 0.00 0.00 0.00 52
20260507014617 88 260 0.9 0.0 0.00 0.00 0.00 52
20260507014108 88 279 0.9 0.0 0.00 0.00 0.00 52
20260507013559 88 267 1.7 0.0 0.00 0.00 0.00 52
20260507013500 89 262 0.9 0.0 0.00 0.00 0.00 51
20260507013051 89 262 0.9 0.0 0.00 0.00 0.00 51
20260507012542 89 286 0.9 0.0 0.00 0.00 0.00 52
20260507012033 89 275 1.7 0.0 0.00 0.00 0.00 51
20260507011524 89 305 0.9 0.0 0.00 0.00 0.00 53
20260507011015 89 315 1.7 0.0 0.00 0.00 0.00 53
20260507010506 89 300 1.7 0.0 0.00 0.00 0.00 53
20260507010409 89 303 2.6 0.0 0.00 0.00 0.00 53
20260507005958 89 303 2.6 0.0 0.00 0.00 0.00 53
20260507005449 89 335 2.6 0.0 0.00 0.00 0.00 53
20260507004940 89 313 2.6 0.0 0.00 0.00 0.00 52
20260507004432 89 314 0.9 0.0 0.00 0.00 0.00 52
20260507003923 89 333 0.9 0.0 0.00 0.00 0.00 51
20260507003825 89 337 2.6 0.0 0.00 0.00 0.00 51
20260507003414 89 337 2.6 0.0 0.00 0.00 0.00 51
20260507002906 89 322 0.9 0.0 0.00 0.00 0.00 51
20260507002759 89 308 1.7 0.0 0.00 0.00 0.00 52
20260507002357 89 308 1.7 0.0 0.00 0.00 0.00 52
20260507002259 89 310 1.7 0.0 0.00 0.00 0.00 52
20260507001849 89 310 1.7 0.0 0.00 0.00 0.00 52
20260507001340 89 313 1.7 0.0 0.00 0.00 0.00 52
20260507001243 89 277 1.7 0.0 0.00 0.00 0.00 53
20260507000832 89 277 1.7 0.0 0.00 0.00 0.00 53
20260507000324 89 301 0.9 0.0 0.00 0.00 0.00 53
20260506235815 89 278 1.7 0.0 0.00 0.00 0.00 53
20260506235307 89 275 1.7 0.0 0.00 0.00 0.00 53
20260506234758 89 266 1.7 0.0 0.00 0.00 0.00 54
20260506234250 89 269 2.6 0.0 0.00 0.00 0.00 53
20260506233741 89 269 1.7 0.0 0.00 0.00 0.00 54
20260506233232 89 271 1.7 0.0 0.00 0.00 0.00 54
20260506232724 89 270 2.6 0.0 0.00 0.00 0.00 54
20260506232216 89 281 2.6 0.0 0.00 0.00 0.00 53
20260506231707 89 275 2.6 0.0 0.00 0.00 0.00 53
20260506231159 89 275 2.6 0.0 0.00 0.00 0.00 53
20260506230650 89 274 2.6 0.0 0.00 0.00 0.00 54
20260506230142 89 279 1.7 0.0 0.00 0.00 0.00 53
20260506225633 89 271 1.7 0.0 0.00 0.00 0.00 54
20260506225125 89 265 1.7 0.0 0.00 0.00 0.00 53
20260506224616 89 276 1.7 0.0 0.00 0.00 0.00 53
20260506224108 89 273 2.6 0.0 0.00 0.00 0.00 53
20260506223559 89 288 1.7 0.0 0.00 0.00 0.00 53
20260506223050 89 278 1.7 0.0 0.00 0.00 0.00 53
20260506222542 89 279 1.7 0.0 0.00 0.00 0.00 53
20260506222033 89 284 1.7 0.0 0.00 0.00 0.00 53
20260506221525 89 269 1.7 0.0 0.00 0.00 0.00 53
20260506221016 89 267 1.7 0.0 0.00 0.00 0.00 53
20260506220507 89 267 1.7 0.0 0.00 0.00 0.00 53
20260506215959 89 281 1.7 0.0 0.00 0.00 0.00 54
20260506215450 89 281 1.7 0.0 0.00 0.00 0.00 53
20260506214942 89 265 0.9 0.0 0.00 0.00 0.00 53
20260506214433 89 266 1.7 0.0 0.00 0.00 0.00 53
20260506213925 89 277 2.6 0.0 0.00 0.00 0.00 53
20260506213416 89 268 1.7 0.0 0.00 0.00 0.00 53
20260506212907 89 265 1.7 0.0 0.00 0.00 0.00 53
20260506212359 89 270 1.7 0.0 0.00 0.00 0.00 53
20260506211850 89 271 1.7 0.0 0.00 0.00 0.00 52
20260506211342 89 280 1.7 0.0 0.00 0.00 0.00 53
20260506210833 89 271 1.7 0.0 0.00 0.00 0.00 53
20260506210325 89 271 2.6 0.0 0.00 0.00 0.00 53
20260506205816 89 259 2.6 0.0 0.00 0.00 0.00 52
20260506205308 89 269 1.7 0.0 0.00 0.00 0.00 53
20260506204800 89 269 1.7 0.0 0.00 0.00 0.00 53
20260506204251 89 282 0.9 0.0 0.00 0.00 0.00 52
20260506203742 89 281 0.9 0.0 0.00 0.00 0.00 52
20260506203233 89 265 1.7 0.0 0.00 0.00 0.00 53
20260506202725 89 257 0.9 0.0 0.00 0.00 0.00 52
20260506202216 89 317 0.9 0.0 0.00 0.00 0.00 52
20260506201707 89 343 0.9 0.0 0.00 0.00 0.00 53
20260506201159 89 294 1.7 0.0 0.00 0.00 0.00 52
20260506200650 90 337 1.7 0.0 0.00 0.00 0.00 52
20260506200142 90 310 1.7 0.0 0.00 0.00 0.00 52
20260506195633 90 351 0.9 0.0 0.00 0.00 0.00 52
20260506195125 90 343 0.9 0.0 0.00 0.00 0.00 53
20260506194616 90 347 0.9 0.0 0.00 0.00 0.00 52
20260506194108 90 341 0.9 0.0 0.00 0.00 0.00 52
20260506193559 90 316 1.7 0.0 0.00 0.00 0.00 52
20260506193051 90 341 0.9 0.0 0.00 0.00 0.00 51
20260506192542 90 302 1.7 0.0 0.00 0.00 0.00 52